Regional Weather Roundup
Issued by NWS Sterling, VA

Home | Current Version | Previous Version | Graphics & Text | Print | Product List | Glossary On
Versions: 1 2 3 4 5 6 7 8 9 10 11 12 13 14 15 16 17 18 19 20 21 22 23 24 25 26 27 28 29 30 31 32 33 34 35 36 37 38 39 40 41 42 43 44 45 46 47 48 49 50
481
ASUS41 KLWX 141410
RWRLWX

REGIONAL WEATHER ROUNDUP
NATIONAL WEATHER SERVICE BALTIMORE MD/WASHINGTON DC
900 AM EST SUN FEB 14 2016

Note: "FAIR" indicates few or no clouds below 12,000 feet
with no significant weather and/or obstructions to visibility.
 TC=TEMPERATURE CELSIUS

 * =Non NWS site. Station does not report precipitation (e.g. rain,
    snow, etc.), thunder, or fog.

DCZ001-MDZ009-015-VAZ040>042-051-053>054-141500-
WASHINGTON METRO

CITY           SKY/WX    TMP DP  RH WIND       PRES   REMARKS
WASHINGTON NAT FAIR      17  -2  43 NW9       30.60R WCI   6
DULLES         FAIR      15  -2  46 NW9       30.57R WCI   3
ANDREWS AFB    SUNNY     16  -2  45 NW12      30.55R WCI   2
FT BELVOIR     FAIR      16  -3  42 NW10      30.59R WCI   4
QUANTICO       FAIR      19  -1  41 N10G17    30.61S WCI   7
COLLEGE PARK*  FAIR      18   0  45 NW5       30.58R
LEESBURG*      FAIR      18   3  53 N7        30.57R
MANASSAS*      SUNNY     18   3  53 N12       30.58R WCI   5
GAITHERSBURG*  SUNNY     12   0  57 NW9       30.57S WCI   0

$$

MDZ006>007-011-014-141500-
BALTIMORE METRO

CITY           SKY/WX    TMP DP  RH WIND       PRES   REMARKS
BWI AIRPORT    MOSUNNY   15  -2  46 NW8       30.57R WCI   4
MD SCIENCE CTR   N/A     15  -4  42 MISG      30.51F
MARTIN STATE   MOSUNNY   16   0  48 NW12      30.59R WCI   3
ANNAPOLIS      SUNNY     16   1  51 NW9       30.58R WCI   4
FORT MEADE*    SUNNY     16   1  53 W10       30.60R WCI   3

$$

MDZ012-015-019>023-141500-
MARYLAND EASTERN SHORE

CITY           SKY/WX    TMP DP  RH WIND       PRES   REMARKS
OCEAN CITY     SUNNY     17  -4  39 N18G28    30.55F WCI   1
SALISBURY      SUNNY     17  -1  45 N14G20    30.55S WCI   3
BAY BRIDGE AP*   N/A     18  -4  38 NW8       30.58R WCI   7
EASTON*        SUNNY     18  -2  41 N13       30.60R WCI   4

$$

MDZ017>025-141500-
SOUTHERN MARYLAND

CITY           SKY/WX    TMP DP  RH WIND       PRES   REMARKS
PATUXENT RIVER MOSUNNY   17  -3  41 N18       30.57S WCI   1
ST INIGOES     SUNNY     17   0  47 NW8G17    30.57S WCI   7
LEONARDTOWN*   SUNNY     16  -2  45 W8        30.58  WCI   5

$$

MDZ003>005-141500-
NORTH CENTRAL MARYLAND

CITY           SKY/WX    TMP DP  RH WIND       PRES   REMARKS
FREDERICK*     NOT AVBL
HAGERSTOWN APT SUNNY     10  -4  53 W3        30.51R
WESTMINSTER*   SUNNY      9   0  66 W6        30.49R

$$

MDZ501>502-141500-
WESTERN MARYLAND

CITY           SKY/WX    TMP DP  RH WIND       PRES   REMARKS
OAKLAND*       MOSUNNY    0  -4  85 CALM      30.25R FOG
CUMBERLAND*    SUNNY     14   1  57 E3        30.54S

$$

VAZ025>031-141500-
SHENANDOAH VALLEY

CITY           SKY/WX    TMP DP  RH WIND       PRES   REMARKS
WINCHESTER*    FAIR      16   3  57 W5        30.51S
FRONT ROYAL*   FAIR      14   0  52 NW5       30.51S
LURAY*         FAIR      14   1  57 SE3       30.50S
NEW MARKET*    FAIR      13   2  63 SW3       30.50S
STAUNTON*      FAIR      16   2  54 CALM      30.50S
WAYNESBORO*    FAIR      10  -3  54 CALM      30.46R

$$

WVZ021-048>050-054>055-141500-
EASTERN WEST VIRGINIA PANHANDLE

CITY           SKY/WX    TMP DP  RH WIND       PRES   REMARKS
MARTINSBURG    FAIR      13  -3  49 NW6       30.53R
PETERSBURG*    FAIR      14   1  56 CALM      30.50S

$$

VAZ036>039-050-141500-
CENTRAL FOOTHILLS

CITY           SKY/WX    TMP DP  RH WIND       PRES   REMARKS
CHARLOTTESVILL FAIR      15   0  51 CALM      30.54R
CULPEPER*      FAIR      15   1  54 CALM      30.58R
ORANGE*        FAIR      18   1  49 CALM      30.57S
GORDONSVILLE*  FAIR      16   0  49 CALM      30.55S
WARRENTON*     FAIR      18   5  56 NW7       30.56S

$$

VAZ055>057-141500-
NORTH AND CENTRAL PIEDMONT

CITY           SKY/WX    TMP DP  RH WIND       PRES   REMARKS
FREDERICKSBRG* FAIR      17   3  55 NW7       30.59S
STAFFORD*      FAIR      16   2  53 NW10      30.63R WCI   4

$$

NCZ024-NYZ072-PAZ021-071-VAZ022-071-141500-
OTHER REGIONAL OBSERVATIONS

CITY           SKY/WX    TMP DP  RH WIND       PRES   REMARKS
NEW YORK CITY  SUNNY      0 -19  40 VRB7G23   30.54R
PHILADELPHIA   MOSUNNY   10 -12  36 NW16G24   30.56R WCI  -7
PITTSBURGH     CLOUDY     3   1  91 CALM      30.44R
ROANOKE        PTSUNNY   14  -3  47 NE5       30.51R
RICHMOND       PTSUNNY   17   0  47 N8        30.58R WCI   7
RALEIGH        CLOUDY    19  -3  38 NE10      30.56R WCI   7

$$

ANZ530>537-141500-
MARINE OBSERVATIONS

STATION/POSITION TIME  TEMP    WIND        PRES
                       AIR SEA DIR/SP/G
                 (UTC) (F)     (DEG/KT/KT) (MB)
THOMAS PT LIGHT  1400   14 35  320/ 11/ 14 1036.2R
BALT KEY BRIDGE  1300   13     270/  9/ 12 1035.3R
COVE POINT       1300   13     320/ 13/ 17 1035.8R
LEWISETTA        1300   16 32  360/ 14/ 19 1035.2R
SOLOMONS ISLAND  1300   16 36  340/ 11/ 15   N/A
PINEY POINT      1300          350/ 21/ 25   N/A

$$





USA.gov is the U.S. government's official web portal to all federal, state and local government web resources and services.